Date,TemperatureHighF,TemperatureAvgF,TemperatureLowF,DewpointHighF,DewpointAvgF,DewpointLowF,HumidityHigh,HumidityAvg,HumidityLow,PressureMaxIn,PressureMinIn,WindSpeedMaxMPH,WindSpeedAvgMPH,GustSpeedMaxMPH,PrecipitationSumIn
2013-3-1,57.5,54.3,51.6,51.5,50.6,49.3,97,88,79,30.31,30.22,23,9,29,0.01
2013-3-2,55.8,49.8,39.9,49.9,45.6,37.7,95,86,75,30.22,30.02,23,8,30,0.01
2013-3-3,48.6,41.7,37.4,39.4,36.5,31.7,95,83,54,30.27,30.16,12,2,16,0.01
2013-3-4,53.2,42.6,33.2,35.3,32.1,28.5,94,69,40,30.27,29.88,14,3,18,0.01
2013-3-5,49.2,44.8,39.6,41.3,37.3,31.3,90,75,55,29.88,29.69,9,1,13,0.01
2013-3-6,44.2,42.9,41.4,41.9,40.3,38.7,96,91,82,29.85,29.54,11,2,16,0.01
2013-3-7,51.1,44.9,40.8,43.6,41.7,39.7,97,89,68,30.05,29.85,13,1,15,0.01
2013-3-8,51.5,42.1,35.5,42.5,38.7,34.9,99,89,68,30.20,30.04,11,1,13,0.01
2013-3-9,50.9,40.5,34.4,43.1,38.2,33.8,100,92,70,30.45,30.20,8,0,9,0.01
2013-3-10,46.1,43.2,39.5,43.2,40.3,37.3,95,90,82,30.45,30.39,9,1,9,0.01
2013-3-11,49.9,46.2,42.9,46.9,43.4,41.2,97,90,77,30.40,30.13,5,1,10,0.01
2013-3-12,55.5,52.3,48.5,51.4,49.2,46.6,96,90,75,30.12,30.02,30,12,33,0.01
2013-3-13,52.7,51.5,50.2,51.1,49.5,48.2,97,93,88,30.17,30.06,25,7,32,0.01
2013-3-14,53.4,50.6,47.9,50.0,47.6,44.8,98,90,74,30.10,29.99,14,4,22,0.01
2013-3-15,57.7,52.3,48.3,50.0,48.9,47.3,98,89,75,30.16,30.09,20,6,25,0.01
2013-3-16,50.1,46.2,40.4,45.5,40.5,36.5,89,81,68,29.97,29.83,23,10,31,0.01
2013-3-17,47.9,42.3,39.6,38.7,36.3,33.9,92,80,61,30.15,29.93,15,5,22,0.01
2013-3-18,51.3,44.2,40.4,41.1,37.5,33.6,94,78,51,30.20,30.06,24,6,36,0.01
2013-3-19,53.9,43.4,37.8,42.4,37.3,31.5,95,80,47,30.19,29.55,15,2,21,0.01
2013-3-20,51.2,46.7,40.7,49.5,41.9,34.2,97,84,71,29.96,29.34,34,10,40,0.01
2013-3-21,46.5,40.6,36.9,38.1,35.5,34.2,94,83,64,30.18,29.97,15,5,18,0.01
2013-3-22,45.0,39.2,35.5,35.8,33.3,28.2,95,81,52,30.34,30.18,12,2,14,0.01
2013-3-23,49.2,40.7,35.9,34.9,32.1,25.8,92,73,40,30.36,30.26,5,1,10,0.01
2013-3-24,54.3,42.6,33.9,39.2,33.8,30.4,93,74,40,30.26,30.08,6,0,7,0.01
2013-3-25,61.4,49.6,36.2,39.6,34.0,29.6,87,58,35,30.09,29.89,10,0,12,0.01
2013-3-26,59.0,51.1,46.2,43.5,40.0,36.7,83,67,45,29.98,29.91,10,1,10,0.01
2013-3-27,54.4,49.3,45.7,47.9,43.1,36.2,96,79,58,29.95,29.90,0,0,0,0.01
2013-3-28,60.8,51.2,44.5,49.2,46.6,43.7,98,86,58,30.11,29.95,0,0,0,0.01
2013-3-29,63.5,52.5,45.3,48.8,45.9,43.9,97,80,51,30.21,30.11,0,0,0,0.01
2013-3-30,64.7,53.4,43.7,48.8,45.7,42.4,96,77,50,30.22,30.04,11,1,15,0.01
2013-3-31,68.8,55.0,44.6,49.4,45.7,42.6,94,73,47,30.04,29.87,9,0,13,0.00